Overview Statistics Trail Chart Weather Telemetry Raw packets
 

This is the latest recevied weather packets stored in our database for station/object K5BOU. If no packets are shown the sender has not sent any weather packets the latest 10 day(s).

<< 20 21 22 23 24 25 26 >>
Time Temp. Humidity Pressure Rain* Wind** Luminosity Snow
1788527046 27.78° C 99% 1012.4 hPa 0 mm - 95 W/m² -
1788526741 27.78° C 99% 1012.3 hPa 0 mm - 88 W/m² -
1788526438 27.22° C 99% 1012.3 hPa 0 mm - 78 W/m² -
1788526137 27.22° C 99% 1012.2 hPa 0 mm - 64 W/m² -
1788525834 26.67° C 99% 1012.2 hPa 0 mm - 54 W/m² -
1788525529 26.67° C 99% 1012.2 hPa 0 mm - 35 W/m² -
1788525224 26.67° C 99% 1012 hPa 0 mm - 24 W/m² -
1788524919 26.67° C 99% 1012.2 hPa 0 mm - 16 W/m² -
1788524618 26.11° C 99% 1012.1 hPa 0 mm - 10 W/m² -
1788524314 26.11° C 99% 1012 hPa 0 mm - 4 W/m² -
1788524010 26.11° C 99% 1011.9 hPa 0 mm - 2 W/m² -
1788523706 26.11° C 99% 1011.9 hPa 0 mm - 1 W/m² -
1788523402 26.11° C 99% 1012 hPa 0 mm - 0 W/m² -
1788523096 26.11° C 99% 1011.9 hPa 0 mm - 0 W/m² -
1788522792 26.11° C 99% 1011.8 hPa 0 mm - 0 W/m² -
1788522491 26.11° C 99% 1011.8 hPa 0 mm - 0 W/m² -
1788522186 26.11° C 99% 1011.8 hPa 0 mm - 0 W/m² -
1788521882 26.11° C 99% 1011.8 hPa 0 mm - 0 W/m² -
1788521581 26.11° C 99% 1011.8 hPa 0 mm - 0 W/m² -
1788521275 26.11° C 99% 1011.9 hPa 0 mm - 0 W/m² -
1788520971 26.11° C 99% 1011.7 hPa 0 mm - 0 W/m² -
1788520667 26.11° C 99% 1011.6 hPa 0 mm - 0 W/m² -
1788520363 26.11° C 99% 1011.6 hPa 0 mm - 0 W/m² -
1788520058 26.11° C 99% 1011.6 hPa 0 mm - 0 W/m² -
1788519757 26.11° C 99% 1011.6 hPa 0 mm - 0 W/m² -

* Rain latest hour (hover to see other rain measurements)
** Current wind speed in m/s (hover to see current wind gust speed)